Location: Gugi
(45.4667°N, 11.1000°E)
Time: 23:56:08
(UTC+00:00)

H-2A R/B - Pass Details

Date: 17 November 2019
Orbit: 500 x 543 km, 97.3° (Epoch: 03 December)

Event Time Altitude Azimuth Distance (km) Brightness Sun altitude
Rises 16:45:04 0° 168° (SSE) 2,668 6.4 -10.8°
Reaches altitude 10° 16:47:11 10° 169° (S) 1,776 5.5 -11.2°
Maximum altitude 16:51:01 82° 258° (WSW) 538 2.8 -11.8°
Drops below altitude 10° 16:54:50 10° 346° (NNW) 1,766 5.4 -12.5°
Sets 16:56:56 0° 347° (NNW) 2,651 6.3 -12.8°
